Home   Weather   Eureka   Past weeks
Flag for Canada

Past Weather in Eureka, Nunavut, Canada — Yesterday and Last 2 Weeks

Now
37 °F

Light rain. Low clouds.


Feels Like: 29 °F
Forecast: 41 / 37 °F
Wind: 13 mph from South

Location: Eureka

Current Time: Jun 17, 2019 at 9:55:52 am

Latest Report: Jun 17, 2019 at 9:00 am


Visibility: 8 mi

Pressure: 29.91 "Hg

Humidity: 93%

Dew Point: 36 °F

Location of EurekaLocation

Past Weather in Eureka — Graph

°F

Eureka Temperature Yesterday

Maximum temperature yesterday: 45 °F (at 2:00 pm)
Minimum temperature yesterday: 39 °F (at 1:00 am)
Average temperature yesterday: 42 °F

High & Low Weather Summary for the Past Weeks

 TemperatureHumidityPressure
High52 °F (Jun 10, 3:00 pm)100% (Jun 5, 9:00 pm)30.28 "Hg (Jun 5, 9:00 pm)
Low30 °F (Jun 2, 8:00 am)41% (Jun 10, 6:00 pm)29.79 "Hg (Jun 11, 8:00 pm)
Average40 °F72%30.09 "Hg
* Reported Jun 2 8:00 am — Jun 17 8:33 am, Eureka. Weather by CustomWeather, © 2019

Note: Actual official high and low records may vary slightly from our data, if they occured in-between our weather recording intervals... More about our weather records

Advertising

Eureka Weather History for the Previous 24 Hours

Scroll right to see more
 ConditionsComfort  
Time TempWeatherWind HumidityBarometerVisibility
8:33 am
Mon, Jun 17
37 °FMostly cloudy.14 mph93%29.91 "Hg10 mi
8:00 am37 °FLight rain. Mostly cloudy.12 mph93%29.91 "Hg15 mi
7:00 am37 °FLight rain. Mostly cloudy.15 mph87%29.92 "Hg10 mi
6:32 am37 °FLight rain. Cloudy.15 mph87%29.92 "Hg15 mi
6:00 am39 °FMore clouds than sun.15 mph81%29.92 "Hg15 mi
5:00 am39 °FMostly cloudy.14 mph81%29.91 "Hg15 mi
4:00 am39 °FCloudy.15 mph81%29.93 "Hg15 mi
3:00 am37 °FCloudy.14 mph87%29.93 "Hg15 mi
2:00 am37 °FMostly cloudy.17 mph87%29.94 "Hg15 mi
1:00 am37 °FMostly cloudy.15 mph87%29.95 "Hg15 mi
10:00 pm
Sun, Jun 16
41 °FLight rain. Partly sunny.22 mph76%29.95 "Hg15 mi
9:41 pm41 °FLight rain. Broken clouds.20 mph76%29.96 "Hg15 mi
9:15 pm41 °FBroken clouds.18 mph76%29.96 "Hg15 mi
9:00 pm41 °FLight rain. Cloudy.20 mph76%29.96 "Hg15 mi
8:00 pm41 °FLight rain. More clouds than sun.15 mph76%29.96 "Hg15 mi
7:00 pm41 °FCloudy.22 mph70%29.96 "Hg15 mi
6:00 pm41 °FMostly cloudy.9 mph70%29.96 "Hg15 mi
5:33 pm41 °FCloudy.9 mph70%29.97 "Hg15 mi
5:00 pm41 °FCloudy.6 mph70%29.98 "Hg15 mi
4:36 pm41 °FCloudy.10 mph76%29.98 "Hg15 mi
4:00 pm43 °FLight rain. Cloudy.17 mph66%29.98 "Hg15 mi
3:00 pm43 °FCloudy.18 mph66%29.98 "Hg15 mi
2:00 pm45 °FCloudy.20 mph61%30.00 "Hg15 mi
1:00 pm43 °FCloudy.13 mph66%30.01 "Hg15 mi
12:00 pm43 °FMore clouds than sun.12 mph71%30.02 "Hg15 mi
11:00 am43 °FMostly cloudy.18 mph66%30.02 "Hg15 mi
10:00 am43 °FPartly sunny.24 mph66%30.03 "Hg15 mi
9:00 am43 °FMostly cloudy.21 mph66%30.04 "Hg15 mi
Weather by CustomWeather, © 2019

See weather overview